Powrót do katalogu

STARLINK-36244

AktywnyŁącznośćSSO
NORAD 68145·PAYLOAD·🇺🇸 United States

Wystrzelony Mar 13, 2026 z Vandenberg Space Force Base

Loading…

Następne Przeloty (najbliższe 24 godziny)

TLE

ŚwieżeSource: CelesTrak SupGP

Epoka: Sep 14, 2026, 21:17 UTC

1 68145C 26049D   26257.88729167  .00028674  00000+0  89025-3 0  2575
2 68145  97.2835 277.9303 0001781 109.4015 167.0243 15.33419616    11

Śledź STARLINK-36244 w czasie rzeczywistym z AllMySat

Download on the App Store